Regional Weather Roundup
Issued by NWS

Home | Current Version | Previous Version | Graphics & Text | Print | Product List | Glossary Off
Versions: 1 2 3 4 5 6 7 8 9 10 11 12 13 14 15 16 17 18 19 20 21 22 23 24 25 26 27 28 29 30 31 32 33 34 35 36 37 38 39 40 41 42 43 44 45 46 47 48 49 50

000
ASUS44 KMEG 061110
RWRTN
TENNESSEE HOURLY STATE WEATHER ROUNDUP
NATIONAL WEATHER SERVICE MEMPHIS TN
600 AM CDT MON JUL 06 2015

TNZ002-004-019-021-049-052-054-088>092-061200-
WEST TENNESSEE

CITY           SKY/WX    TMP DP  RH WIND       PRES   REMARKS
MEMPHIS INTL   PTCLDY    71  68  90 S8        30.10R
NWS MEMPHIS      N/A     70 N/A N/A MISG        N/A
JACKSON        CLEAR     69  67  93 S5        30.11R
DYERSBURG        N/A    N/A N/A N/A MISG        N/A
PARIS          MOCLDY    70  70 100 CALM      30.11R
LEXINGTON      CLOUDY    66  66 100 CALM      30.11R VSB 0
$$

TNZ008-025-027-028-033-062-065-066-061200-
NORTH MIDDLE TENNESSEE

CITY           SKY/WX    TMP DP  RH WIND       PRES   REMARKS
NASHVILLE      MOCLDY    70  70 100 CALM      30.13R
CLARKSVILLE    MOCLDY    70  69  97 CALM      30.11R FOG
SMYRNA         CLEAR     68  68 100 CALM      30.14R FOG
COOKEVILLE     CLOUDY    70  70 100 S3        30.14R VSB 1/4
CROSSVILLE     CLOUDY    70  67  90 VRB3      30.18R FOG
$$

TNZ061-075-076-078-094-096-097-061200-
SOUTH MIDDLE TENNESSEE

CITY           SKY/WX    TMP DP  RH WIND       PRES   REMARKS
FAYETTEVILLE   CLOUDY    70  68  94 W5        30.15R VSB 1/2
TULLAHOMA      CLEAR     64  63  94 CALM      30.16R
WINCHESTER     CLOUDY    66  66 100 CALM      30.15R
MCMINNVILLE    MOCLDY    70  70 100 CALM      30.15R
COLUMBIA       CLOUDY    70  70 100 SW6       30.12R
SHELBYVILLE      N/A     66  66 100 CALM        N/A  VSB 3/4
$$

TNZ017-018-042-046-047-061200-
NORTHEAST TENNESSEE

CITY           SKY/WX    TMP DP  RH WIND       PRES   REMARKS
TRI CITIES     CLOUDY    68  66  93 CALM      30.15R
ELIZABETHTON   PTSUNNY   64  64 100 CALM      30.15R
$$

TNZ012-013-036-069-073-074-061200-
CENTRAL EAST TENNESSEE

CITY           SKY/WX    TMP DP  RH WIND       PRES   REMARKS
KNOXVILLE      CLOUDY    69  66  90 SW5       30.13R
OAK RIDGE      CLOUDY    69  68  96 SW3       30.15R FOG
GATLINBURG     MOSUNNY   66  64  94 CALM      30.14R
MORRISTOWN       N/A     66  66 100 SW3       30.16R
$$

TNZ083-085-099-061200-
SOUTHEAST TENNESSEE

CITY           SKY/WX    TMP DP  RH WIND       PRES   REMARKS
CHATTANOOGA    MOCLDY    69  67  93 CALM      30.13S
$$

SKY/WX REPORTED AS FAIR MEANS FEW OR NO CLOUDS BELOW
12 THOUSAND FEET.



USA.gov is the U.S. government's official web portal to all federal, state and local government web resources and services.